Hourly Data Report for June 07, 2017

QUALICUM BEACH AIRPORT
BRITISH COLUMBIA

49°20'14.000" N
124°23'38.000" W
58.20 m
1026562
71766
VOQ

Download Data

Hourly Data (June 2017)
Hourly Data Report for June 7, 2017
TIME
LST
Temp Definition
°C
Dew Point Definition
°C
Rel Hum Definition
%
Precip. Amount Definition
mm

Wind Dir Definition
10's deg

Wind Spd Definition
km/h
Visibility Definition
km
Stn Press Definition
kPa
Hmdx Definition


Wind Chill Definition


Weather Definition


00:00 14.0 10.0 77 0.0 24 6   100.40     LegendNANA
01:00 12.5 9.9 84 0.0 20 1   100.40     LegendNANA
02:00 11.9 9.5 86 0.0 30 3   100.38     LegendNANA
03:00 12.0 9.3 84 0.0 28 2   100.36     LegendNANA
04:00 11.3 8.6 84 0.0 24 2   100.34     LegendNANA
05:00 10.7 8.3 85 0.0 20 3   100.32     LegendNANA
06:00 15.7 10.1 70 0.0 29 3   100.29     LegendNANA
07:00 18.3 8.9 54 0.0 1 2   100.26     LegendNANA
08:00 17.9 9.4 58 0.0 3 5   100.18     LegendNANA
09:00 19.6 10.7 57 0.0 36 5   100.14     LegendNANA
10:00 19.9 13.0 64 0.0 5 7   100.09     LegendNANA
11:00 19.3 11.2 59 0.0 10 13   100.01     LegendNANA
12:00 19.9 11.9 60 0.0 9 9   99.93     LegendNANA
13:00 18.6 10.3 59 0.0 9 8   99.87     LegendNANA
14:00 22.0 10.0 46 0.0 9 6   99.79     LegendNANA
15:00 22.9 10.1 44 0.0 9 6   99.72     LegendNANA
16:00 21.1 11.9 56 0.0 10 7   99.68     LegendNANA
17:00 18.6 13.8 74 0.0 10 4   99.64     LegendNANA
18:00 19.3 12.9 67 0.0 20 3   99.59     LegendNANA
19:00 18.8 13.9 73 0.0 20 2   99.62     LegendNANA
20:00 18.2 14.3 78 0.0 15 3   99.64     LegendNANA
21:00 17.9 14.5 81 0.0 34 1   99.68     LegendNANA
22:00 17.4 14.7 84 0.0 36 5   99.71     LegendNANA
23:00 17.3 11.9 71 0.0 31 4   99.74     LegendNANA

Notes on Data Quality.

Legend

  • E = Estimated
  • M = Missing
  • NA = Not Available*
  • [empty] = Indicates an unobserved value
Date modified: